Weather History for KOZR - February, 2014

Change the Weather History Date:

Thursday, February 6, 2014

  Actual Average Record
Temperature  
Mean Temperature 37 °F -  
Max Temperature 41 °F 59 °F 75 °F (1999)
Min Temperature 33 °F 38 °F 24 °F (2000)
Degree Days  
Heating Degree Days 28    
Moisture  
Dew Point 30 °F    
Average Humidity 77    
Maximum Humidity 94    
Minimum Humidity 57    
Precipitation  
Precipitation 0.04 in - - ()
Sea Level Pressure  
Sea Level Pressure 30.29 in    
Wind  
Wind Speed 9 mph (North)    
Max Wind Speed 14 mph    
Max Gust Speed 22 mph    
Visibility 10 miles    
Events Rain    
Averages and records for this station are not official NWS values.
T = Trace of Precipitation, MM = Missing Value Source: NWS Daily Summary

Daily Weather History Graph

Daily Weather History Graph

Search for Another Location

Airport or City:

Trip Planner

Search our weather history database for the weather conditions in past years. The results will help you decide how hot, cold, wet, or windy it might be!

Date:

Astronomy

Feb. 06, 2014 Rise Set
Actual Time 6:31 AM CST 5:22 PM CST
Civil Twilight 6:06 AM CST 5:47 PM CST
Nautical Twilight 5:37 AM CST 6:16 PM CST
Astronomical Twilight 5:09 AM CST 6:44 PM CST
Moon 10:55 AM CST (2/6) No Moon Set
Length of Visible Light 11h 41m
Length of Day
10h 50m
Waxing Crescent, 49% of the Moon is Illuminated
Feb 6
Waxing Crescent
Feb 6
First Quarter
Feb 14
Full
Feb 22
Last Quarter
Mar 1
New

Hourly Weather History & Observations

Time (CST) Temp. Windchill Dew Point Humidity Pressure Visibility Wind Dir Wind Speed Gust Speed Precip Events Conditions
12:58 AM 36.5 °F 30.3 °F 30.6 °F 79% 30.25 in 10.0 mi North 8.1 mph - N/A   Clear
1:58 AM 35.8 °F 28.3 °F 29.7 °F 78% 30.24 in 10.0 mi North 10.4 mph - N/A   Clear
2:58 AM 34.9 °F 28.3 °F 28.6 °F 78% 30.24 in 10.0 mi North 8.1 mph - N/A   Clear
3:58 AM 34.0 °F 26.0 °F 27.5 °F 77% 30.25 in 10.0 mi North 10.4 mph - N/A   Clear
4:58 AM 33.8 °F 24.8 °F 27.3 °F 77% 30.27 in 10.0 mi NNW 12.7 mph 17.3 mph N/A   Mostly Cloudy
5:58 AM 33.6 °F 25.0 °F 26.6 °F 75% 30.27 in 10.0 mi North 11.5 mph 21.9 mph N/A   Overcast
6:58 AM 34.0 °F 26.6 °F 26.6 °F 74% 30.29 in 10.0 mi North 9.2 mph - N/A   Overcast
7:58 AM 34.7 °F 26.9 °F 26.2 °F 71% 30.32 in 10.0 mi North 10.4 mph - N/A   Scattered Clouds
8:58 AM 36.1 °F 27.3 °F 26.2 °F 67% 30.32 in 10.0 mi North 13.8 mph - N/A   Scattered Clouds
9:58 AM 38.5 °F 31.1 °F 26.2 °F 61% 30.32 in 10.0 mi North 11.5 mph - N/A   Scattered Clouds
10:58 AM 37.6 °F 31.0 °F 25.9 °F 63% 30.27 in 10.0 mi NNE 9.2 mph - N/A   Overcast
11:58 AM 39.6 °F 32.5 °F 26.2 °F 59% 30.29 in 10.0 mi North 11.5 mph - N/A   Scattered Clouds
12:58 PM 39.0 °F 34.0 °F 26.2 °F 60% 30.26 in 10.0 mi North 6.9 mph - N/A   Overcast
1:58 PM 39.6 °F 34.0 °F 27.0 °F 61% 30.24 in 10.0 mi North 8.1 mph - N/A   Overcast
2:58 PM 40.3 °F 33.9 °F 27.1 °F 59% 30.27 in 10.0 mi NNW 10.4 mph - N/A   Mostly Cloudy
3:15 PM 41.0 °F 34.7 °F 26.6 °F 57% 30.25 in 10.0 mi NNW 10.4 mph - N/A   Light Drizzle
3:58 PM 38.7 °F 32.4 °F 30.9 °F 74% 30.31 in 10.0 mi NNW 9.2 mph - 0.01 in Rain Light Rain
4:23 PM 37.4 °F 30.8 °F 32.0 °F 81% 30.30 in 10.0 mi NW 9.2 mph - N/A   Mostly Cloudy
4:58 PM 37.8 °F 31.8 °F 31.5 °F 78% 30.32 in 10.0 mi NNW 8.1 mph - 0.00 in   Overcast
5:23 PM 37.4 °F 32.8 °F 32.0 °F 81% 30.30 in 10.0 mi North 5.8 mph - N/A Rain Light Rain
5:58 PM 37.8 °F 32.5 °F 32.5 °F 81% 30.28 in 8.0 mi East 6.9 mph - 0.01 in Rain Light Rain
6:25 PM 37.4 °F - 32.0 °F 81% 30.28 in 10.0 mi NNE 2.3 mph - N/A   Partly Cloudy
6:29 PM 37.4 °F 34.9 °F 32.0 °F 81% 30.28 in 10.0 mi North 3.5 mph - N/A Rain Light Rain
6:39 PM 37.4 °F 34.9 °F 32.0 °F 81% 30.30 in 10.0 mi NNW 3.5 mph - N/A   Scattered Clouds
6:51 PM 37.4 °F - 35.6 °F 93% 30.31 in 10.0 mi West 2.3 mph - N/A Rain Light Rain
6:58 PM 36.9 °F - 34.7 °F 92% 30.32 in 10.0 mi NNW 2.3 mph - 0.02 in Rain Light Rain
7:58 PM 36.3 °F 32.5 °F 34.7 °F 94% 30.32 in 10.0 mi NW 4.6 mph - 0.00 in   Mostly Cloudy
8:58 PM 35.8 °F 30.9 °F 34.3 °F 94% 30.34 in 10.0 mi NNW 5.8 mph - N/A   Mostly Cloudy
9:58 PM 35.2 °F 28.8 °F 33.3 °F 92% 30.33 in 10.0 mi North 8.1 mph - N/A   Clear
10:58 PM 34.0 °F 28.8 °F 32.2 °F 93% 30.30 in 10.0 mi NNE 5.8 mph - N/A   Clear
11:58 PM 33.1 °F 28.7 °F 31.3 °F 93% 30.29 in 10.0 mi North 4.6 mph - N/A   Clear